GW2991 Weather Reports


Display with metric or nautical units.
time (UTC)temp
F
wind
direction
speed
MPH
gust
MPH
rain 1hr
in
rain 24hr
in
rain mn
in
humidity
%
barometer
mb
20260906233028 60 152 4.0 8.0 0.00 0.00 0.00 76 1017.2
20260906231529 60 134 4.0 8.0 0.00 0.00 0.00 76 1017.4
20260906231034 60 103 4.0 8.0 0.00 0.00 0.00 76 1017.4
20260906230529 60 105 4.0 11.0 0.00 0.00 0.00 76 1017.4
20260906230029 61 100 5.0 11.0 0.00 0.00 0.00 75 1017.4
20260906225529 61 115 5.0 10.0 0.00 0.00 0.00 74 1017.4
20260906225030 61 158 5.0 10.0 0.00 0.00 0.00 74 1017.3
20260906224027 61 123 5.0 10.0 0.00 0.00 0.00 75 1017.3
20260906223531 61 105 4.0 10.0 0.00 0.00 0.00 75 1017.4
20260906222523 61 104 4.0 9.0 0.00 0.00 0.00 74 1017.4
20260906221024 60 135 5.0 10.0 0.00 0.00 0.00 75 1017.5
20260906220024 60 126 4.0 9.0 0.00 0.00 0.00 77 1017.5
20260906215525 60 137 4.0 9.0 0.00 0.00 0.00 78 1017.3
20260906215025 60 121 4.0 9.0 0.00 0.00 0.00 78 1017.4
20260906214525 60 133 4.0 9.0 0.00 0.00 0.00 79 1017.4
20260906214022 60 128 4.0 10.0 0.00 0.00 0.00 80 1017.4
20260906213022 59 133 5.0 12.0 0.00 0.00 0.00 80 1017.6
20260906212527 59 74 3.0 8.0 0.00 0.00 0.00 83 1017.5
20260906212022 59 130 2.0 6.0 0.00 0.00 0.00 86 1017.4
20260906211523 58 68 3.0 6.0 0.00 0.00 0.00 87 1017.4
20260906211022 58 121 3.0 7.0 0.00 0.00 0.00 88 1017.5
20260906210522 57 146 3.0 7.0 0.00 0.00 0.00 88 1017.6
20260906210023 57 149 4.0 7.0 0.00 0.00 0.00 88 1017.7
20260906205523 57 178 3.0 7.0 0.00 0.00 0.00 88 1017.8
20260906205023 57 125 3.0 6.0 0.00 0.00 0.00 89 1017.8
20260906204520 57 129 3.0 6.0 0.00 0.00 0.00 89 1017.9
20260906204020 56 126 2.0 6.0 0.00 0.00 0.00 90 1017.9
20260906203520 56 115 3.0 7.0 0.00 0.00 0.00 90 1017.9
20260906203021 56 141 4.0 10.0 0.00 0.00 0.00 90 1018.0
20260906202020 57 126 7.0 13.0 0.00 0.00 0.00 89 1018.3
20260906201522 57 149 7.0 13.0 0.00 0.00 0.00 88 1018.4
20260906201022 58 121 5.0 10.0 0.00 0.00 0.00 86 1018.5
20260906200521 58 119 3.0 8.0 0.00 0.00 0.00 83 1018.3
20260906200021 58 122 3.0 6.0 0.00 0.00 0.00 83 1018.3
20260906195017 58 119 3.0 6.0 0.00 0.00 0.00 83 1018.4
20260906194515 58 126 3.0 6.0 0.00 0.00 0.00 83 1018.4
20260906194015 58 107 3.0 7.0 0.00 0.00 0.00 83 1018.4
20260906193515 58 127 4.0 8.0 0.00 0.00 0.00 83 1018.5
20260906193015 58 143 4.0 8.0 0.00 0.00 0.00 82 1018.5
20260906192016 58 128 5.0 10.0 0.00 0.00 0.00 82 1018.6
20260906191515 58 122 4.0 10.0 0.00 0.00 0.00 82 1018.6
20260906191017 58 125 3.0 7.0 0.00 0.00 0.00 82 1018.6
20260906190514 58 142 4.0 8.0 0.00 0.00 0.00 81 1018.5
20260906190014 58 119 4.0 9.0 0.00 0.00 0.00 82 1018.6
20260906185513 58 119 4.0 9.0 0.00 0.00 0.00 81 1018.7
20260906185016 58 163 4.0 8.0 0.00 0.00 0.00 82 1018.8
20260906184013 58 147 3.0 9.0 0.00 0.00 0.00 82 1018.7
20260906183513 58 137 3.0 7.0 0.00 0.00 0.00 81 1018.8
20260906183012 58 152 4.0 9.0 0.00 0.00 0.00 81 1018.9
20260906182519 57 150 5.0 10.0 0.00 0.00 0.00 82 1018.9
20260906182014 57 147 5.0 10.0 0.00 0.00 0.00 81 1019.0
20260906181513 58 139 5.0 10.0 0.00 0.00 0.00 81 1018.9
20260906181013 57 159 5.0 9.0 0.00 0.00 0.00 81 1019.0
20260906180513 57 145 5.0 10.0 0.00 0.00 0.00 82 1019.1
20260906180013 57 142 5.0 10.0 0.00 0.00 0.00 81 1019.2
20260906175011 57 130 5.0 12.0 0.00 0.00 0.00 81 1019.3
20260906174010 57 129 5.0 10.0 0.00 0.00 0.00 81 1019.2
20260906173511 57 113 5.0 10.0 0.00 0.00 0.00 82 1019.1
20260906173011 57 184 5.0 9.0 0.00 0.00 0.00 81 1019.1
20260906172511 57 144 5.0 11.0 0.00 0.00 0.00 81 1019.1
20260906171511 57 138 5.0 11.0 0.00 0.00 0.00 80 1019.2
20260906170513 57 175 4.0 9.0 0.00 0.00 0.00 82 1019.1
20260906170008 57 97 4.0 9.0 0.00 0.00 0.00 82 1019.1
20260906165509 57 104 3.0 8.0 0.00 0.00 0.00 82 1019.0
20260906165008 57 110 2.0 6.0 0.00 0.00 0.00 82 1019.0
20260906164509 57 135 3.0 5.0 0.00 0.00 0.00 82 1019.1
20260906164013 57 129 3.0 6.0 0.00 0.00 0.00 83 1018.9
20260906162509 58 93 1.0 4.0 0.00 0.00 0.00 80 1019.0
20260906162008 57 0 1.0 4.0 0.00 0.00 0.00 80 1019.0
20260906160003 56 105 2.0 5.0 0.00 0.00 0.00 83 1018.9
20260906155503 56 108 2.0 5.0 0.00 0.00 0.00 85 1018.9
20260906155003 56 148 1.0 4.0 0.00 0.00 0.00 86 1019.1
20260906154502 55 164 2.0 5.0 0.00 0.00 0.00 87 1019.0
20260906153959 55 148 2.0 5.0 0.00 0.00 0.00 87 1019.1
20260906153458 55 116 3.0 7.0 0.00 0.00 0.00 88 1019.1
20260906152456 55 125 3.0 7.0 0.00 0.00 0.00 90 1019.1
20260906151955 55 141 2.0 5.0 0.00 0.00 0.00 91 1019.2
20260906151452 55 130 2.0 5.0 0.00 0.00 0.00 93 1019.2
20260906150452 54 113 2.0 5.0 0.00 0.00 0.00 94 1019.4
20260906145949 54 178 2.0 5.0 0.00 0.00 0.00 94 1019.3
20260906145453 54 144 1.0 4.0 0.00 0.00 0.00 94 1019.4
20260906144952 54 164 2.0 4.0 0.00 0.00 0.00 94 1019.5
20260906144452 54 113 2.0 4.0 0.00 0.00 0.00 94 1019.5
20260906143455 54 143 1.0 3.0 0.00 0.00 0.00 94 1019.5
20260906142952 54 149 1.0 4.0 0.00 0.00 0.00 94 1019.7
20260906142454 54 153 2.0 5.0 0.00 0.00 0.00 94 1019.7
20260906141939 54 133 2.0 5.0 0.00 0.00 0.00 94 1019.7
20260906141439 54 147 2.0 5.0 0.00 0.00 0.00 94 1019.7
20260906140942 54 131 2.0 5.0 0.00 0.00 0.00 94 1019.7
20260906140441 54 173 2.0 6.0 0.00 0.00 0.00 94 1019.7
20260906135441 54 145 2.0 7.0 0.00 0.00 0.00 94 1019.8
20260906134942 54 152 2.0 4.0 0.00 0.00 0.00 93 1019.8
20260906134442 54 158 2.0 5.0 0.00 0.00 0.00 93 1019.7
20260906133940 54 130 2.0 6.0 0.00 0.00 0.00 93 1019.7
20260906133440 54 118 3.0 6.0 0.00 0.00 0.00 93 1019.7
20260906132940 54 123 3.0 6.0 0.00 0.00 0.00 93 1019.7
20260906132437 54 125 3.0 6.0 0.00 0.00 0.00 93 1019.8
20260906131938 54 142 3.0 6.0 0.00 0.00 0.00 93 1019.9
20260906130938 54 141 3.0 6.0 0.00 0.00 0.00 92 1020.0
20260906130439 54 99 3.0 6.0 0.00 0.00 0.00 92 1020.1
20260906125938 54 121 3.0 5.0 0.00 0.00 0.00 92 1020.1
20260906125438 54 104 2.0 5.0 0.00 0.00 0.00 92 1020.1
20260906124938 54 121 2.0 5.0 0.00 0.00 0.00 92 1020.2
20260906124436 53 142 2.0 5.0 0.00 0.00 0.00 92 1020.2
20260906123937 53 98 2.0 5.0 0.00 0.00 0.00 92 1020.0
20260906123436 53 104 2.0 4.0 0.00 0.00 0.00 92 1020.1
20260906121426 53 135 2.0 5.0 0.00 0.00 0.00 92 1020.0
20260906120926 53 151 2.0 5.0 0.00 0.00 0.00 92 1020.1
20260906120426 53 119 2.0 5.0 0.00 0.00 0.00 92 1020.0
20260906115925 53 146 2.0 5.0 0.00 0.00 0.00 92 1019.9
20260906115427 53 119 2.0 4.0 0.00 0.00 0.00 92 1019.8
20260906114923 53 133 1.0 4.0 0.00 0.00 0.00 92 1019.9
20260906114423 53 116 1.0 4.0 0.00 0.00 0.00 92 1019.7
20260906113923 53 92 1.0 4.0 0.00 0.00 0.00 92 1019.8
20260906113423 53 124 2.0 4.0 0.00 0.00 0.00 92 1019.8
20260906111923 53 125 1.0 3.0 0.00 0.00 0.00 92 1020.1
20260906111424 53 125 1.0 4.0 0.00 0.00 0.00 92 1020.1
20260906110921 53 70 1.0 4.0 0.00 0.00 0.00 92 1020.2
20260906110422 53 117 1.0 4.0 0.00 0.00 0.00 92 1020.3
20260906105921 53 142 1.0 4.0 0.00 0.00 0.00 92 1020.4
20260906104922 53 113 2.0 6.0 0.00 0.00 0.00 92 1020.4
20260906104422 53 121 2.0 6.0 0.00 0.00 0.00 92 1020.4
20260906103417 53 103 2.0 5.0 0.00 0.00 0.00 91 1020.6
20260906102914 53 129 2.0 6.0 0.00 0.00 0.00 91 1020.7
20260906102413 53 124 3.0 6.0 0.00 0.00 0.00 92 1020.7
20260906101913 53 135 2.0 6.0 0.00 0.00 0.00 92 1020.7
20260906101413 53 117 2.0 4.0 0.00 0.00 0.00 92 1020.7
20260906100913 53 90 1.0 4.0 0.00 0.00 0.00 92 1020.7
20260906100414 53 111 2.0 4.0 0.00 0.00 0.00 92 1020.7
20260906095913 53 118 2.0 4.0 0.00 0.00 0.00 92 1020.8
20260906095409 53 124 1.0 4.0 0.00 0.00 0.00 92 1020.8
20260906094909 53 86 1.0 3.0 0.00 0.00 0.00 92 1020.8
20260906094409 53 69 1.0 3.0 0.00 0.00 0.00 92 1020.7
20260906093906 53 56 1.0 2.0 0.00 0.00 0.00 92 1020.7
20260906092859 53 78 2.0 5.0 0.00 0.00 0.00 92 1020.8
20260906092359 53 74 2.0 5.0 0.00 0.00 0.00 92 1020.8
20260906091859 53 108 2.0 4.0 0.00 0.00 0.00 92 1020.8
20260906090901 53 138 1.0 3.0 0.00 0.00 0.00 92 1020.8
20260906090359 53 126 1.0 4.0 0.00 0.00 0.00 92 1020.9
20260906085901 53 160 2.0 4.0 0.00 0.00 0.00 92 1021.0
20260906084856 53 113 2.0 4.0 0.00 0.00 0.00 92 1021.2
20260906084359 53 67 1.0 4.0 0.00 0.00 0.00 92 1021.3
20260906083856 53 123 2.0 4.0 0.00 0.00 0.00 92 1021.2
20260906083357 53 136 2.0 4.0 0.00 0.00 0.00 91 1021.5
20260906082856 53 124 2.0 4.0 0.00 0.00 0.00 91 1021.6
20260906082356 53 88 2.0 4.0 0.00 0.00 0.00 91 1021.5
20260906081856 53 133 2.0 3.0 0.00 0.00 0.00 91 1021.5
20260906080856 53 119 2.0 4.0 0.00 0.00 0.00 91 1021.6
20260906080357 53 124 2.0 4.0 0.00 0.00 0.00 90 1021.6
20260906075856 53 128 2.0 5.0 0.00 0.00 0.00 90 1021.6
20260906075349 53 150 1.0 5.0 0.00 0.00 0.00 89 1021.6
20260906074849 53 129 1.0 3.0 0.00 0.00 0.00 89 1021.6
20260906074346 53 94 1.0 3.0 0.00 0.00 0.00 89 1021.6
20260906073846 53 96 1.0 4.0 0.00 0.00 0.00 89 1021.6
20260906073345 53 128 2.0 4.0 0.00 0.00 0.00 88 1021.5
20260906072846 53 82 2.0 4.0 0.00 0.00 0.00 88 1021.6
20260906072347 53 52 1.0 4.0 0.00 0.00 0.00 87 1021.6
20260906071846 53 62 1.0 3.0 0.00 0.00 0.00 87 1021.6
20260906071344 53 93 2.0 5.0 0.00 0.00 0.00 87 1021.7
20260906070844 53 125 2.0 5.0 0.00 0.00 0.00 87 1021.7
20260906070346 53 77 2.0 5.0 0.00 0.00 0.00 86 1021.8
20260906065842 53 105 2.0 4.0 0.00 0.00 0.00 86 1021.8
20260906065332 53 68 2.0 4.0 0.00 0.00 0.00 86 1021.8
20260906064832 53 86 2.0 5.0 0.00 0.00 0.00 86 1021.8
20260906064332 54 135 2.0 5.0 0.00 0.00 0.00 86 1021.8
20260906063333 54 79 2.0 4.0 0.00 0.00 0.00 86 1021.8
20260906062835 54 127 2.0 4.0 0.00 0.00 0.00 86 1021.8
20260906062332 54 79 2.0 4.0 0.00 0.00 0.00 86 1021.8
20260906061833 54 77 2.0 4.0 0.00 0.00 0.00 86 1021.8
20260906061332 54 104 2.0 4.0 0.00 0.00 0.00 86 1021.8
20260906060833 54 88 2.0 4.0 0.00 0.00 0.00 86 1021.8
20260906060329 54 57 2.0 4.0 0.00 0.00 0.00 86 1021.7
20260906055831 54 67 2.0 4.0 0.00 0.00 0.00 86 1021.8
20260906055328 54 78 2.0 5.0 0.00 0.00 0.00 86 1021.8
20260906054829 54 121 2.0 5.0 0.00 0.00 0.00 86 1021.8
20260906054329 54 71 2.0 4.0 0.00 0.00 0.00 86 1021.9
20260906053829 54 66 1.0 4.0 0.00 0.00 0.00 86 1021.9
20260906053329 54 74 1.0 5.0 0.00 0.00 0.00 86 1021.9
20260906052830 54 51 2.0 5.0 0.00 0.00 0.00 86 1021.9
20260906052329 54 71 2.0 4.0 0.00 0.00 0.00 86 1021.9
20260906051329 54 55 3.0 7.0 0.00 0.00 0.00 85 1021.9
20260906050829 54 75 3.0 7.0 0.00 0.00 0.00 85 1021.8
20260906050329 54 54 2.0 6.0 0.00 0.00 0.00 85 1021.8
20260906045833 54 133 2.0 6.0 0.00 0.00 0.00 84 1021.8
20260906045329 54 44 2.0 6.0 0.00 0.00 0.00 84 1021.8
20260906044829 54 83 2.0 5.0 0.00 0.00 0.00 84 1021.8
20260906043829 54 20 2.0 6.0 0.00 0.00 0.00 84 1021.7
20260906043328 54 69 2.0 6.0 0.00 0.00 0.00 83 1021.7
20260906042828 54 47 3.0 6.0 0.00 0.00 0.00 83 1021.6
20260906041824 54 4 2.0 6.0 0.00 0.00 0.00 83 1021.5
20260906041325 54 73 2.0 5.0 0.00 0.00 0.00 83 1021.5
20260906040825 54 64 2.0 5.0 0.00 0.00 0.00 83 1021.6
20260906035829 54 51 2.0 5.0 0.00 0.00 0.00 82 1021.7
20260906034825 54 45 2.0 5.0 0.00 0.00 0.00 82 1021.7
20260906034325 54 42 1.0 5.0 0.00 0.00 0.00 82 1021.7
20260906033325 54 73 2.0 5.0 0.00 0.00 0.00 82 1021.7
20260906032826 54 80 2.0 5.0 0.00 0.00 0.00 82 1021.7
20260906032324 54 53 2.0 6.0 0.00 0.00 0.00 82 1021.7
20260906031823 55 62 2.0 6.0 0.00 0.00 0.00 82 1021.7
20260906031323 55 93 2.0 5.0 0.00 0.00 0.00 81 1021.7
20260906030320 55 59 2.0 6.0 0.00 0.00 0.00 81 1021.7
20260906025822 55 38 2.0 5.0 0.00 0.00 0.00 81 1021.8
20260906025321 55 32 2.0 7.0 0.00 0.00 0.00 81 1021.8
20260906024821 55 69 2.0 7.0 0.00 0.00 0.00 81 1021.8
20260906024321 55 61 2.0 5.0 0.00 0.00 0.00 81 1021.8
20260906023821 55 61 2.0 5.0 0.00 0.00 0.00 80 1021.8
20260906023317 55 62 2.0 5.0 0.00 0.00 0.00 80 1021.8
20260906022817 55 57 2.0 4.0 0.00 0.00 0.00 80 1021.7
20260906022317 55 42 2.0 4.0 0.00 0.00 0.00 80 1021.7
20260906021316 55 75 2.0 6.0 0.00 0.00 0.00 80 1021.7
20260906020815 55 98 3.0 7.0 0.00 0.00 0.00 80 1021.7
20260906020315 55 101 3.0 7.0 0.00 0.00 0.00 80 1021.5
20260906015816 55 51 3.0 7.0 0.00 0.00 0.00 79 1021.5
20260906014314 55 53 2.0 6.0 0.00 0.00 0.00 79 1021.5
20260906013813 55 93 2.0 6.0 0.00 0.00 0.00 79 1021.5
20260906012309 55 65 2.0 6.0 0.00 0.00 0.00 79 1021.4
20260906011810 56 342 2.0 5.0 0.00 0.00 0.00 78 1021.4
20260906011308 56 36 2.0 5.0 0.00 0.00 0.00 78 1021.4
20260906010808 56 55 2.0 5.0 0.00 0.00 0.00 78 1021.4
20260906010308 56 72 2.0 4.0 0.00 0.00 0.00 78 1021.4
20260906005809 56 51 2.0 4.0 0.00 0.00 0.00 77 1021.4
20260906005308 56 33 1.0 3.0 0.00 0.00 0.00 77 1021.4
20260906004811 56 347 2.0 4.0 0.00 0.00 0.00 77 1021.3
20260906004308 56 31 2.0 4.0 0.00 0.00 0.00 78 1021.4
20260906003807 56 14 2.0 5.0 0.00 0.00 0.00 78 1021.4
20260906003309 56 49 2.0 5.0 0.00 0.00 0.00 78 1021.4
20260906002809 56 348 2.0 4.0 0.00 0.00 0.00 78 1021.4
20260906001809 56 43 2.0 4.0 0.00 0.00 0.00 78 1021.4
20260906001310 56 330 2.0 4.0 0.00 0.00 0.00 78 1021.4
20260906000811 56 31 2.0 5.0 0.00 0.00 0.00 78 1021.4
20260906000311 56 36 2.0 5.0 0.00 0.00 0.00 77 1021.4
20260905235809 56 302 1.0 4.0 0.00 0.00 0.00 77 1021.3
20260905235311 56 27 2.0 4.0 0.00 0.00 0.00 77 1021.3
20260905234302 56 2 2.0 4.0 0.00 0.00 0.00 77 1021.3
20260905233803 56 344 2.0 5.0 0.00 0.00 0.00 78 1021.3